IW2NIA-3 Weather Reports


Display with metric or nautical units.
time (UTC)temp
F
wind
direction
speed
MPH
gust
MPH
rain 1hr
in
rain 24hr
in
rain mn
in
humidity
%
barometer
mb
20260502230329 54 62 3.0 4.0 0.00 0.00 0.00 73 1019.9
20260502224828 54 62 2.0 3.0 0.00 0.00 0.00 73 1020.0
20260502223327 55 62 2.0 3.0 0.00 0.00 0.00 72 1020.1
20260502221840 55 63 3.0 4.0 0.00 0.00 0.00 71 1020.0
20260502220339 55 72 2.0 4.0 0.00 0.00 0.00 70 1020.1
20260502214834 55 73 1.0 3.0 0.00 0.00 0.00 69 1020.0
20260502213327 55 132 2.0 3.0 0.00 0.00 0.00 70 1020.0
20260502211842 55 198 0.0 3.0 0.00 0.00 0.00 70 1020.1
20260502210337 56 199 1.0 3.0 0.00 0.00 0.00 68 1020.2
20260502204828 57 199 0.0 2.0 0.00 0.00 0.00 68 1020.2
20260502203343 58 199 1.0 2.0 0.00 0.00 0.00 68 1020.2
20260502201840 59 199 0.0 0.0 0.00 0.00 0.00 67 1020.1
20260502200333 59 199 0.0 0.0 0.00 0.00 0.00 66 1020.1
20260502194843 60 199 1.0 4.0 0.00 0.00 0.00 64 1020.0
20260502193333 61 199 0.0 0.0 0.00 0.00 0.00 61 1019.9
20260502191827 63 199 0.0 0.0 0.00 0.00 0.00 59 1019.9
20260502190339 64 199 0.0 0.0 0.00 0.00 0.00 57 1019.8
20260502184837 64 201 0.0 0.0 0.00 0.00 0.00 55 1019.6
20260502183327 66 201 0.0 0.0 0.00 0.00 0.00 51 1019.7
20260502181824 67 201 0.0 0.0 0.00 0.00 0.00 47 1019.5
20260502180339 68 200 0.0 0.0 0.00 0.00 0.00 46 1019.6
20260502170337 71 243 3.0 6.0 0.00 0.00 0.00 39 1019.5
20260502163328 72 220 2.0 6.0 0.00 0.00 0.00 39 1019.6
20260502161843 73 208 3.0 6.0 0.00 0.00 0.00 37 1019.8
20260502160339 73 247 3.0 7.0 0.00 0.00 0.00 36 1020.0
20260502151827 74 213 5.0 10.0 0.00 0.00 0.00 39 1020.2
20260502150342 73 217 3.0 7.0 0.00 0.00 0.00 38 1020.3
20260502130341 71 237 3.0 12.0 0.00 0.00 0.00 38 1022.2
20260502123343 70 200 3.0 7.0 0.00 0.00 0.00 41 1022.5
20260502121838 71 241 6.0 10.0 0.00 0.00 0.00 41 1022.8
20260502120331 70 232 2.0 11.0 0.00 0.00 0.00 39 1022.9
20260502114846 69 49 1.0 6.0 0.00 0.00 0.00 42 1023.1
20260502113342 69 240 6.0 9.0 0.00 0.00 0.00 42 1023.4
20260502111836 69 288 4.0 11.0 0.00 0.00 0.00 42 1023.6
20260502110331 69 223 1.0 6.0 0.00 0.00 0.00 48 1023.8
20260502104844 69 198 8.0 13.0 0.00 0.00 0.00 42 1024.0
20260502103338 67 240 1.0 5.0 0.00 0.00 0.00 44 1024.4
20260502101830 67 238 6.0 11.0 0.00 0.00 0.00 44 1024.5
20260502100344 67 211 4.0 9.0 0.00 0.00 0.00 48 1024.8
20260502090343 64 219 5.0 6.0 0.00 0.00 0.00 53 1025.5
20260502070330 60 207 1.0 3.0 0.00 0.00 0.00 60 1025.7
20260502064830 60 103 0.0 3.0 0.00 0.00 0.00 63 1025.8
20260502063347 59 76 1.0 4.0 0.00 0.00 0.00 66 1025.7
20260502061840 58 75 0.0 3.0 0.00 0.00 0.00 69 1025.8
20260502060334 57 78 1.0 4.0 0.00 0.00 0.00 72 1025.6
20260502054830 55 59 2.0 3.0 0.00 0.00 0.00 75 1025.7
20260502053324 53 59 1.0 3.0 0.00 0.00 0.00 80 1025.7
20260502051840 50 59 2.0 3.0 0.00 0.00 0.00 82 1025.7
20260502050339 49 59 2.0 4.0 0.00 0.00 0.00 83 1025.6
20260502044833 47 63 3.0 4.0 0.00 0.00 0.00 83 1025.5
20260502043347 47 71 2.0 4.0 0.00 0.00 0.00 83 1025.6
20260502041843 47 71 1.0 3.0 0.00 0.00 0.00 83 1025.5
20260502040339 47 71 2.0 3.0 0.00 0.00 0.00 82 1025.5
20260502034833 47 71 2.0 3.0 0.00 0.00 0.00 82 1025.5
20260502033343 47 73 3.0 4.0 0.00 0.00 0.00 83 1025.5
20260502031838 47 74 2.0 3.0 0.00 0.00 0.00 82 1025.4
20260502030331 47 74 2.0 3.0 0.00 0.00 0.00 82 1025.5
20260502024832 47 74 1.0 2.0 0.00 0.00 0.00 81 1025.4
20260502023347 47 74 1.0 2.0 0.00 0.00 0.00 81 1025.4
20260502021838 48 74 1.0 4.0 0.00 0.00 0.00 81 1025.4
20260502020332 48 99 2.0 3.0 0.00 0.00 0.00 80 1025.3
20260502014843 48 99 0.0 0.0 0.00 0.00 0.00 80 1025.3
20260502013332 48 100 1.0 3.0 0.00 0.00 0.00 80 1025.3
20260502011842 48 100 0.0 0.0 0.00 0.00 0.00 80 1025.3
20260502010335 48 100 1.0 3.0 0.00 0.00 0.00 80 1025.2
20260502004832 48 100 1.0 3.0 0.00 0.00 0.00 80 1025.4
20260502003329 48 101 1.0 2.0 0.00 0.00 0.00 79 1025.4
20260502001832 48 101 0.0 0.0 0.00 0.00 0.00 79 1025.5
20260502000347 49 101 2.0 3.0 0.00 0.00 0.00 79 1025.5
20260501234835 49 109 2.0 3.0 0.00 0.00 0.00 78 1025.5
20260501233330 49 109 1.0 2.0 0.00 0.00 0.00 78 1025.5
20260501231838 49 109 0.0 0.0 0.00 0.00 0.00 77 1025.4